Location: *
(51.0333°S, 178.4667°E)
Time: 05:32:08
(UTC+00:00)

Cosmos 2221 Rocket - Pass Details

Date: 15 November 2019
Orbit: 620 x 649 km, 82.5° (Epoch: 05 December)

Event Time Altitude Azimuth Distance (km) Brightness Sun altitude
Rises 08:42:03 0° 189° (S) 2,976 8.0 -9.2°
Reaches altitude 10° 08:44:20 10° 186° (S) 2,064 7.1 -9.4°
Maximum altitude 08:48:54 66° 103° (ESE) 713 3.7 -9.9°
Enters shadow 08:53:07 12° 20° (NNE) 1,924 5.5 -10.4°
